Location: Rounton
(54.4000°N, 1.3500°W)
Time: 12:50:28
(UTC+00:00)

Transit 2A - Pass Details

Date: 04 December 2021
Orbit: 591 x 967 km, 66.7° (Epoch: 17 January)

Event Time Altitude Azimuth Distance (km) Brightness Sun altitude
Rises 09:00:31 0° 317° (NW) 3,656 8.8 4.6°
Reaches altitude 10° 09:03:11 10° 312° (NW) 2,716 8.2 4.9°
Maximum altitude 09:09:14 45° 242° (WSW) 1,280 7.2 5.4°
Drops below altitude 10° 09:15:05 10° 172° (S) 2,629 10.1 5.9°
Sets 09:17:38 0° 166° (SSE) 3,528 10.9 6.2°
